COSMOS 2486

导读 | 星芒AI

COSMOS 2486 是一颗由俄罗斯发射的军用卫星,于2013年12月25日使用联盟号火箭从普列谢茨克航天发射场发射升空。该卫星属于俄罗斯的GLONASS导航系统,用于增强全球定位和导航能力。COSMOS 2486 运行在中地球轨道,设计用于提供高精度的定位、导航和时间同步服务,支持军事和民用应用。其发射体现了俄罗斯在空间技术和军事现代化方面的持续投入。

基本信息
目录编号:
39177
目录名称:
COSMOS 2486
国际标识:
2013-028A
轨道中心:
EARTH
卫星名称:
COSMOS 2486
卫星全名:
--
卫星状态:
在轨 (已飞行4529 天)
发射日期:
2013-06-07 UTC
国别 :
俄罗斯(独联体) (CIS)
星等 :
--
轨道信息
数据来源 国际轨道数据 AOE轨道数据
星历时间 2025-10-31T07:34:52+0800
8小时前
查看轨道信息
2025-10-31T08:00:00+0800
7小时前
查看轨道信息
半长轴 7084.135km 7084.113km
偏心率 0.0011331 0.0011301
轨道倾角 97.984° 97.982°
近地点辐角 17.373° 17.003°
升交点赤经 275.747° 275.763°
平近点角 342.785° 74.617°
近地点 697.972km 697.972km
远地点 714.028km 713.984km
周期 98.899分钟 98.898分钟
每日圈数 14.560375 14.560442
详细信息
使用方式:
暂无
2D轨道图
3D轨道图
轨道高度分析图
轨道倾角分析图
轨道综合分析图
查看轨道综合分析图